Location: Unspecified
(0.0000°N, 0.0000°E)
Time: 22:43:32
(UTC+00:00)

Snapshot (C) - Visible Passes

Search period start: 05 June 2026 00:00
Search period end: 15 June 2026 00:00
Orbit: 1152 x 1199 km, 90.3° (Epoch: 5 June)

Date Brightness Start Highest point End Pass type
(mag) Time Alt. Az. Time Alt. Az. Time Alt. Az.
5 Jun 8.2 20:51:39 10° N 20:54:55 30° N 20:54:55 30° N visible
6 Jun 7.9 20:28:08 10° NNE 20:31:39 32° NNE 20:31:39 32° NNE visible
7 Jun 7.9 20:04:56 10° NNE 20:08:24 29° NE 20:08:24 29° NE visible
7 Jun 9.2 21:55:39 10° NW 21:57:23 14° WNW 21:57:23 14° WNW visible
8 Jun 8.1 19:42:07 10° NE 19:45:09 22° ENE 19:45:09 22° ENE visible
8 Jun 8.7 21:30:37 10° NNW 21:34:09 23° WNW 21:34:09 23° WNW visible
9 Jun 8.4 19:19:53 10° NE 19:21:57 15° ENE 19:21:57 15° ENE visible
9 Jun 8.1 21:06:14 10° NNW 21:10:56 35° NW 21:10:56 35° NW visible
10 Jun 7.4 20:42:16 10° N 20:47:45 53° NW 20:47:45 53° NW visible
11 Jun 6.9 20:18:35 10° N 20:24:35 67° NNE 20:24:35 67° NNE visible
12 Jun 6.9 19:55:13 10° NNE 20:01:27 54° ENE 20:01:27 54° ENE visible
12 Jun 9.2 21:47:26 10° WNW 21:50:21 13° W 21:50:26 13° W visible
13 Jun 7.3 19:32:12 10° NNE 19:38:20 36° E 19:38:20 36° E visible
13 Jun 8.7 21:21:43 10° NW 21:26:48 22° W 21:27:20 21° W visible
14 Jun 7.8 19:09:38 10° NE 19:14:58 23° E 19:15:16 23° E visible
14 Jun 8.1 20:57:05 10° NNW 21:03:15 34° W 21:04:15 32° WSW visible
